AAY7 KSRQ-KIAD

Flight info

Callsign AAY7
Flight time 1h 49m
Altitude 39000
Route TIDES1 CAMJO HEPAR Q99 OGRAE BZNGA DORRN CAVLR6
Aircraft B752/M-SDE3FGHIM3RWXY/LB1

Departure

Time 2026-04-26 03:21
Airport Sarasota Bradenton International Airport (KSRQ)

Arrival

Time 2026-04-26 05:11
Airport Washington Dulles International Airport (KIAD)
Time Latitude Longitude Altitude Speed Heading
2026-04-26 02:59 27.39047 -82.55381 39 ft 0 kts 196°
2026-04-26 03:12 27.39057 -82.55378 39 ft 2 kts 196°
2026-04-26 03:13 27.39072 -82.55373 39 ft 2 kts 196°
2026-04-26 03:13 27.39082 -82.55370 39 ft 0 kts 196°
2026-04-26 03:13 27.39096 -82.55368 39 ft 2 kts 169°
2026-04-26 03:13 27.39109 -82.55374 39 ft 2 kts 143°
2026-04-26 03:14 27.39119 -82.55386 39 ft 2 kts 115°
2026-04-26 03:14 27.39122 -82.55398 39 ft 0 kts 95°
2026-04-26 03:14 27.39122 -82.55405 39 ft 0 kts 92°
2026-04-26 03:17 27.39122 -82.55402 39 ft 2 kts 92°
2026-04-26 03:17 27.39122 -82.55363 39 ft 6 kts 90°
2026-04-26 03:17 27.39122 -82.55303 39 ft 8 kts 91°
2026-04-26 03:17 27.39122 -82.55228 39 ft 10 kts 101°
2026-04-26 03:18 27.39080 -82.55159 39 ft 11 kts 134°
2026-04-26 03:18 27.39019 -82.55090 39 ft 13 kts 136°
2026-04-26 03:18 27.38951 -82.55011 39 ft 14 kts 134°
2026-04-26 03:18 27.38875 -82.54923 39 ft 16 kts 134°
2026-04-26 03:19 27.38792 -82.54829 39 ft 17 kts 135°
2026-04-26 03:19 27.38701 -82.54725 39 ft 19 kts 134°
2026-04-26 03:19 27.38606 -82.54615 39 ft 18 kts 128°
2026-04-26 03:19 27.38592 -82.54588 39 ft 0 kts 112°
2026-04-26 03:20 27.38591 -82.54584 39 ft 2 kts 111°
2026-04-26 03:20 27.38609 -82.54520 39 ft 14 kts 40°
2026-04-26 03:20 27.38697 -82.54543 39 ft 16 kts 316°
2026-04-26 03:21 27.38959 -82.54843 39 ft 104 kts 314°
2026-04-26 03:21 27.39673 -82.55665 219 ft 179 kts 313°
2026-04-26 03:21 27.40655 -82.56827 716 ft 227 kts 314°
2026-04-26 03:21 27.41688 -82.58060 2224 ft 215 kts 306°
2026-04-26 03:22 27.42292 -82.59665 2603 ft 235 kts 277°
2026-04-26 03:22 27.42096 -82.61405 2583 ft 222 kts 250°
2026-04-26 03:22 27.41605 -82.63010 2577 ft 218 kts 256°
2026-04-26 03:22 27.41301 -82.64709 2582 ft 220 kts 261°
2026-04-26 03:23 27.41097 -82.66388 2595 ft 221 kts 263°
2026-04-26 03:23 27.40940 -82.68160 3064 ft 234 kts 261°
2026-04-26 03:23 27.40455 -82.69865 4157 ft 236 kts 248°
2026-04-26 03:23 27.39836 -82.71647 4902 ft 256 kts 251°
2026-04-26 03:24 27.39560 -82.73662 5722 ft 270 kts 277°
2026-04-26 03:24 27.40216 -82.75592 6828 ft 272 kts 306°
2026-04-26 03:24 27.41631 -82.76941 7930 ft 275 kts 333°
2026-04-26 03:24 27.43407 -82.77759 9075 ft 276 kts 336°
2026-04-26 03:25 27.45163 -82.78577 10146 ft 277 kts 335°
2026-04-26 03:25 27.47023 -82.79251 10820 ft 295 kts 350°
2026-04-26 03:25 27.49154 -82.79296 11354 ft 318 kts 359°
2026-04-26 03:25 27.51435 -82.79204 11880 ft 335 kts 358°
2026-04-26 03:26 27.53823 -82.79125 11983 ft 349 kts 359°
2026-04-26 03:26 27.56237 -82.79039 11967 ft 344 kts 359°
2026-04-26 03:26 27.58638 -82.78964 11972 ft 343 kts 358°
2026-04-26 03:26 27.61015 -82.78950 11962 ft 345 kts 357°
2026-04-26 03:27 27.63407 -82.78934 11981 ft 344 kts 357°
2026-04-26 03:27 27.65847 -82.78920 12106 ft 354 kts 358°
2026-04-26 03:27 27.68262 -82.78903 13347 ft 347 kts 357°
2026-04-26 03:27 27.70672 -82.78889 14153 ft 352 kts 358°
2026-04-26 03:28 27.73112 -82.78874 15026 ft 354 kts 358°
2026-04-26 03:28 27.75577 -82.78859 15840 ft 359 kts 358°
2026-04-26 03:28 27.78090 -82.78843 16740 ft 361 kts 358°
2026-04-26 03:28 27.80607 -82.78828 17505 ft 366 kts 358°
2026-04-26 03:29 27.83205 -82.78811 18236 ft 372 kts 358°
2026-04-26 03:29 27.85797 -82.78794 18986 ft 377 kts 358°
2026-04-26 03:29 27.88444 -82.78777 19666 ft 383 kts 358°
2026-04-26 03:29 27.91099 -82.78760 20355 ft 388 kts 358°
2026-04-26 03:30 27.93833 -82.78743 21006 ft 393 kts 357°
2026-04-26 03:30 27.96600 -82.78725 21670 ft 398 kts 357°
2026-04-26 03:30 27.99390 -82.78709 22261 ft 404 kts 357°
2026-04-26 03:30 28.02222 -82.78690 22920 ft 408 kts 357°
2026-04-26 03:31 28.05063 -82.78673 23551 ft 413 kts 357°
2026-04-26 03:31 28.07977 -82.78655 24133 ft 419 kts 357°
2026-04-26 03:31 28.10898 -82.78636 24770 ft 423 kts 357°
2026-04-26 03:31 28.13869 -82.78617 25343 ft 428 kts 357°
2026-04-26 03:32 28.16824 -82.78598 25955 ft 431 kts 357°
2026-04-26 03:32 28.19852 -82.78579 26487 ft 436 kts 357°
2026-04-26 03:32 28.22903 -82.78560 27024 ft 441 kts 357°
2026-04-26 03:32 28.26015 -82.78541 27562 ft 445 kts 357°
2026-04-26 03:33 28.29117 -82.78520 28050 ft 449 kts 357°
2026-04-26 03:33 28.32290 -82.78500 28618 ft 452 kts 357°
2026-04-26 03:33 28.35413 -82.78481 29039 ft 458 kts 356°
2026-04-26 03:33 28.38611 -82.78461 29579 ft 460 kts 357°
2026-04-26 03:34 28.41827 -82.78395 29987 ft 466 kts
2026-04-26 03:34 28.45116 -82.78091 30438 ft 471 kts
2026-04-26 03:34 28.48381 -82.77793 30913 ft 473 kts
2026-04-26 03:34 28.51696 -82.77492 31262 ft 478 kts
2026-04-26 03:35 28.55022 -82.77191 31807 ft 477 kts
2026-04-26 03:35 28.58315 -82.76894 32380 ft 476 kts
2026-04-26 03:35 28.61650 -82.76592 32901 ft 476 kts
2026-04-26 03:35 28.64921 -82.76297 33450 ft 474 kts
2026-04-26 03:36 28.68213 -82.76000 33940 ft 474 kts
2026-04-26 03:36 28.71496 -82.75703 34591 ft 470 kts
2026-04-26 03:36 28.74789 -82.75405 35237 ft 467 kts
2026-04-26 03:36 28.77966 -82.75118 35803 ft 463 kts
2026-04-26 03:37 28.81180 -82.74828 36375 ft 460 kts
2026-04-26 03:37 28.84383 -82.74539 36859 ft 458 kts
2026-04-26 03:37 28.87598 -82.74249 37326 ft 456 kts
2026-04-26 03:37 28.90743 -82.73965 37738 ft 455 kts
2026-04-26 03:38 28.93917 -82.73678 38137 ft 454 kts
2026-04-26 03:38 28.97058 -82.73393 38507 ft 453 kts
2026-04-26 03:38 29.00223 -82.73106 38934 ft 448 kts
2026-04-26 03:38 29.03349 -82.72823 38905 ft 449 kts
2026-04-26 03:39 29.09569 -82.72259 38910 ft 447 kts 360°
2026-04-26 03:39 29.15779 -82.71695 38911 ft 449 kts 360°
2026-04-26 03:40 29.21417 -82.71183 38910 ft 450 kts 360°
2026-04-26 03:40 29.27883 -82.70594 38906 ft 448 kts 360°
2026-04-26 03:41 29.34105 -82.70026 38908 ft 448 kts 360°
2026-04-26 03:41 29.40303 -82.69461 38909 ft 448 kts 360°
2026-04-26 03:42 29.46508 -82.69202 38915 ft 445 kts 354°
2026-04-26 03:42 29.52725 -82.69222 38910 ft 446 kts 355°
2026-04-26 03:43 29.58933 -82.69204 38909 ft 446 kts 355°
2026-04-26 03:43 29.65136 -82.69172 38910 ft 445 kts 355°
2026-04-26 03:44 29.71372 -82.69137 38912 ft 446 kts 355°
2026-04-26 03:44 29.77554 -82.69099 38910 ft 446 kts 355°
2026-04-26 03:45 29.83805 -82.69059 38909 ft 445 kts 355°
2026-04-26 03:45 29.89993 -82.69022 38908 ft 446 kts 355°
2026-04-26 03:46 29.96238 -82.68982 38910 ft 447 kts 355°
2026-04-26 03:47 30.05589 -82.68922 38910 ft 445 kts 355°
2026-04-26 03:47 30.11767 -82.68885 38922 ft 447 kts 355°
2026-04-26 03:48 30.17995 -82.68845 38923 ft 444 kts 355°
2026-04-26 03:48 30.24242 -82.68807 38928 ft 447 kts 355°
2026-04-26 03:49 30.30486 -82.68767 38912 ft 447 kts 355°
2026-04-26 03:49 30.36731 -82.68728 38916 ft 447 kts 355°
2026-04-26 03:50 30.42999 -82.68689 38909 ft 446 kts 355°
2026-04-26 03:50 30.49241 -82.68641 38918 ft 448 kts 356°
2026-04-26 03:51 30.55496 -82.67619 38909 ft 454 kts
2026-04-26 03:51 30.61690 -82.66331 38915 ft 453 kts
2026-04-26 03:52 30.67972 -82.65002 38906 ft 454 kts
2026-04-26 03:52 30.74191 -82.63680 38900 ft 457 kts
2026-04-26 03:53 30.80462 -82.62341 38891 ft 456 kts
2026-04-26 03:53 30.86703 -82.61005 38894 ft 455 kts
2026-04-26 03:54 30.92967 -82.59663 38896 ft 457 kts
2026-04-26 03:54 30.99252 -82.58315 38902 ft 456 kts
2026-04-26 03:55 31.05486 -82.56973 38898 ft 456 kts
2026-04-26 03:55 31.11477 -82.54506 38922 ft 469 kts 21°
2026-04-26 03:56 31.17261 -82.51060 38897 ft 472 kts 21°
2026-04-26 03:56 31.22878 -82.47677 38906 ft 469 kts 21°
2026-04-26 03:57 31.28719 -82.44138 38912 ft 471 kts 22°
2026-04-26 03:57 31.34544 -82.40595 38905 ft 473 kts 22°
2026-04-26 03:58 31.40402 -82.37025 38913 ft 471 kts 22°
2026-04-26 03:58 31.46169 -82.33506 38894 ft 476 kts 22°
2026-04-26 03:59 31.52095 -82.29882 38889 ft 474 kts 22°
2026-04-26 03:59 31.57938 -82.26305 38889 ft 475 kts 22°
2026-04-26 04:00 31.63802 -82.22710 38892 ft 477 kts 22°
2026-04-26 04:00 31.69663 -82.19112 38877 ft 477 kts 22°
2026-04-26 04:01 31.75487 -82.15530 38886 ft 476 kts 22°
2026-04-26 04:01 31.81373 -82.11906 38890 ft 479 kts 22°
2026-04-26 04:02 31.87308 -82.08247 38900 ft 480 kts 23°
2026-04-26 04:02 31.93225 -82.04591 38897 ft 480 kts 22°
2026-04-26 04:03 31.99138 -82.00935 38906 ft 479 kts 22°
2026-04-26 04:03 32.05049 -81.97273 38900 ft 482 kts 23°
2026-04-26 04:04 32.10841 -81.93680 38900 ft 480 kts 23°
2026-04-26 04:04 32.16703 -81.90109 38905 ft 481 kts 21°
2026-04-26 04:05 32.22725 -81.86588 38898 ft 482 kts 21°
2026-04-26 04:05 32.28702 -81.83079 38902 ft 482 kts 21°
2026-04-26 04:06 32.34761 -81.79517 38897 ft 483 kts 21°
2026-04-26 04:06 32.40756 -81.75990 38897 ft 483 kts 21°
2026-04-26 04:07 32.46775 -81.72440 38895 ft 485 kts 21°
2026-04-26 04:07 32.52823 -81.68868 38902 ft 484 kts 21°
2026-04-26 04:08 32.58779 -81.65345 38902 ft 486 kts 21°
2026-04-26 04:08 32.64809 -81.61774 38911 ft 485 kts 21°
2026-04-26 04:09 32.70882 -81.58171 38908 ft 485 kts 22°
2026-04-26 04:09 32.76923 -81.54582 38916 ft 487 kts 21°
2026-04-26 04:10 32.82974 -81.50980 38902 ft 486 kts 21°
2026-04-26 04:10 32.89006 -81.47385 38894 ft 488 kts 21°
2026-04-26 04:11 32.95035 -81.43787 38893 ft 485 kts 21°
2026-04-26 04:11 33.01114 -81.40153 38893 ft 486 kts 22°
2026-04-26 04:12 33.07176 -81.36524 38907 ft 487 kts 21°
2026-04-26 04:12 33.13145 -81.32945 38902 ft 487 kts 22°
2026-04-26 04:13 33.19165 -81.29329 38902 ft 486 kts 22°
2026-04-26 04:13 33.25229 -81.25683 38885 ft 488 kts 22°
2026-04-26 04:14 33.31328 -81.22008 38897 ft 488 kts 22°
2026-04-26 04:14 33.37371 -81.18362 38885 ft 490 kts 22°
2026-04-26 04:15 33.43495 -81.14661 38879 ft 490 kts 22°
2026-04-26 04:15 33.49444 -81.11058 38892 ft 487 kts 22°
2026-04-26 04:16 33.55535 -81.07368 38898 ft 491 kts 22°
2026-04-26 04:16 33.61604 -81.03680 38904 ft 491 kts 22°
2026-04-26 04:17 33.67643 -81.00008 38903 ft 490 kts 22°
2026-04-26 04:17 33.73735 -80.96298 38903 ft 491 kts 22°
2026-04-26 04:18 33.79824 -80.92584 38905 ft 493 kts 22°
2026-04-26 04:18 33.85790 -80.88598 38915 ft 496 kts 32°
2026-04-26 04:19 33.91305 -80.83556 38910 ft 498 kts 34°
2026-04-26 04:19 33.96784 -80.78461 38906 ft 500 kts 34°
2026-04-26 04:20 34.02220 -80.73370 38904 ft 497 kts 34°
2026-04-26 04:20 34.07697 -80.68220 38903 ft 498 kts 34°
2026-04-26 04:21 34.12768 -80.63442 38912 ft 498 kts 34°
2026-04-26 04:22 34.23680 -80.53133 38909 ft 497 kts 34°
2026-04-26 04:22 34.29191 -80.48000 38916 ft 498 kts 33°
2026-04-26 04:23 34.34659 -80.42962 38907 ft 499 kts 34°
2026-04-26 04:23 34.40161 -80.37883 38916 ft 500 kts 34°
2026-04-26 04:24 34.45498 -80.32948 38904 ft 500 kts 34°
2026-04-26 04:24 34.50908 -80.27936 38910 ft 499 kts 34°
2026-04-26 04:25 34.56407 -80.22832 38907 ft 500 kts 34°
2026-04-26 04:25 34.61925 -80.17705 38905 ft 501 kts 34°
2026-04-26 04:26 34.67490 -80.12522 38914 ft 502 kts 34°
2026-04-26 04:26 34.73062 -80.07336 38919 ft 501 kts 34°
2026-04-26 04:27 34.78651 -80.02135 38923 ft 503 kts 34°
2026-04-26 04:27 34.84253 -79.97067 38926 ft 502 kts 32°
2026-04-26 04:28 34.89915 -79.92078 38919 ft 501 kts 32°
2026-04-26 04:28 34.95554 -79.87095 38921 ft 502 kts 32°
2026-04-26 04:29 35.01228 -79.82072 38924 ft 503 kts 33°
2026-04-26 04:29 35.06908 -79.77032 38920 ft 503 kts 32°
2026-04-26 04:30 35.12217 -79.72316 38906 ft 502 kts 32°
2026-04-26 04:30 35.18071 -79.67188 38904 ft 504 kts 31°
2026-04-26 04:31 35.23836 -79.62273 38909 ft 504 kts 31°
2026-04-26 04:31 35.29556 -79.57380 38904 ft 503 kts 31°
2026-04-26 04:32 35.35314 -79.52445 38901 ft 503 kts 31°
2026-04-26 04:32 35.41072 -79.47502 38901 ft 504 kts 31°
2026-04-26 04:33 35.46839 -79.42542 38897 ft 505 kts 31°
2026-04-26 04:33 35.52554 -79.37617 38902 ft 503 kts 31°
2026-04-26 04:34 35.58166 -79.32773 38901 ft 503 kts 31°
2026-04-26 04:34 35.63911 -79.27806 38907 ft 505 kts 32°
2026-04-26 04:35 35.69676 -79.22813 38909 ft 506 kts 32°
2026-04-26 04:35 35.75377 -79.17797 38900 ft 508 kts 36°
2026-04-26 04:36 35.80820 -79.12220 38903 ft 511 kts 37°
2026-04-26 04:36 35.86305 -79.06609 38902 ft 510 kts 36°
2026-04-26 04:37 35.91763 -79.01025 38901 ft 511 kts 37°
2026-04-26 04:37 35.97240 -78.95411 38907 ft 509 kts 36°
2026-04-26 04:38 36.02705 -78.89803 38911 ft 510 kts 36°
2026-04-26 04:38 36.08160 -78.84196 38911 ft 511 kts 36°
2026-04-26 04:39 36.13461 -78.78734 38899 ft 509 kts 36°
2026-04-26 04:39 36.18914 -78.73107 38902 ft 510 kts 36°
2026-04-26 04:40 36.24365 -78.67471 38901 ft 510 kts 37°
2026-04-26 04:40 36.29812 -78.61828 38915 ft 511 kts 37°
2026-04-26 04:41 36.35272 -78.56161 38921 ft 509 kts 36°
2026-04-26 04:41 36.40842 -78.50651 38926 ft 505 kts 28°
2026-04-26 04:42 36.47094 -78.46802 38922 ft 501 kts 18°
2026-04-26 04:42 36.53486 -78.43340 38923 ft 500 kts 18°
2026-04-26 04:43 36.59886 -78.39905 38922 ft 499 kts 18°
2026-04-26 04:43 36.66230 -78.36508 38928 ft 500 kts 18°
2026-04-26 04:44 36.72549 -78.33122 38916 ft 502 kts 18°
2026-04-26 04:44 36.78671 -78.29835 38916 ft 500 kts 18°
2026-04-26 04:45 36.85087 -78.26385 38920 ft 499 kts 18°
2026-04-26 04:45 36.91341 -78.23010 38891 ft 477 kts 18°
2026-04-26 04:45 36.94322 -78.21401 38650 ft 467 kts 18°
2026-04-26 04:46 36.97273 -78.19811 37985 ft 466 kts 18°
2026-04-26 04:46 37.00223 -78.18220 37340 ft 464 kts 18°
2026-04-26 04:46 37.03151 -78.16639 36187 ft 466 kts 19°
2026-04-26 04:46 37.06127 -78.15031 35488 ft 467 kts 19°
2026-04-26 04:47 37.09071 -78.13436 34940 ft 465 kts 19°
2026-04-26 04:47 37.11795 -78.11960 34309 ft 465 kts 19°
2026-04-26 04:47 37.14730 -78.10368 33454 ft 466 kts 19°
2026-04-26 04:47 37.17665 -78.08776 32535 ft 467 kts 20°
2026-04-26 04:48 37.23263 -78.05730 31094 ft 456 kts 20°
2026-04-26 04:48 37.26205 -78.04131 30406 ft 467 kts 20°
2026-04-26 04:48 37.29196 -78.02505 29724 ft 477 kts 20°
2026-04-26 04:49 37.32253 -78.00835 29026 ft 475 kts 20°
2026-04-26 04:49 37.35269 -77.99187 28381 ft 466 kts 20°
2026-04-26 04:49 37.38181 -77.97595 27720 ft 458 kts 20°
2026-04-26 04:49 37.41047 -77.96029 27080 ft 451 kts 20°
2026-04-26 04:50 37.43876 -77.94481 26479 ft 446 kts 20°
2026-04-26 04:50 37.46719 -77.92925 25890 ft 443 kts 20°
2026-04-26 04:50 37.49503 -77.91399 25300 ft 440 kts 20°
2026-04-26 04:50 37.52284 -77.89874 24721 ft 435 kts 21°
2026-04-26 04:51 37.54990 -77.88360 24149 ft 431 kts 21°
2026-04-26 04:51 37.57727 -77.86802 23542 ft 428 kts 21°
2026-04-26 04:51 37.60392 -77.85287 22980 ft 421 kts 21°
2026-04-26 04:51 37.63036 -77.83783 22402 ft 415 kts 21°
2026-04-26 04:52 37.65453 -77.82411 21906 ft 409 kts 21°
2026-04-26 04:52 37.68141 -77.80918 21341 ft 404 kts 20°
2026-04-26 04:52 37.70702 -77.79501 20785 ft 400 kts 20°
2026-04-26 04:52 37.73222 -77.78103 20247 ft 395 kts 20°
2026-04-26 04:53 37.75714 -77.76720 19692 ft 391 kts 20°
2026-04-26 04:53 37.78210 -77.75333 19157 ft 385 kts 20°
2026-04-26 04:53 37.80629 -77.73990 18620 ft 381 kts 20°
2026-04-26 04:53 37.83055 -77.72641 18085 ft 376 kts 21°
2026-04-26 04:54 37.85410 -77.71331 17547 ft 372 kts 21°
2026-04-26 04:54 37.87786 -77.70006 17039 ft 368 kts 21°
2026-04-26 04:54 37.90098 -77.68717 16545 ft 367 kts 21°
2026-04-26 04:54 37.92419 -77.67423 16046 ft 363 kts 21°
2026-04-26 04:55 37.94738 -77.66127 15544 ft 360 kts 21°
2026-04-26 04:55 37.97021 -77.64851 15052 ft 357 kts 21°
2026-04-26 04:55 37.99291 -77.63583 14548 ft 354 kts 21°
2026-04-26 04:55 38.01534 -77.62327 14066 ft 350 kts 21°
2026-04-26 04:56 38.03769 -77.61076 13574 ft 347 kts 21°
2026-04-26 04:56 38.05957 -77.59824 13109 ft 344 kts 23°
2026-04-26 04:56 38.08093 -77.58463 12639 ft 344 kts 24°
2026-04-26 04:56 38.09992 -77.57256 12218 ft 342 kts 24°
2026-04-26 04:57 38.11796 -77.56107 11815 ft 339 kts 24°
2026-04-26 04:57 38.13765 -77.54856 11375 ft 335 kts 24°
2026-04-26 04:57 38.15625 -77.53672 11013 ft 331 kts 24°
2026-04-26 04:58 38.19935 -77.50913 10938 ft 291 kts 24°
2026-04-26 04:58 38.21717 -77.49773 10782 ft 281 kts 24°
2026-04-26 04:58 38.23398 -77.48708 10398 ft 279 kts 21°
2026-04-26 04:58 38.25229 -77.47907 9932 ft 279 kts 12°
2026-04-26 04:59 38.27117 -77.47250 9413 ft 283 kts 13°
2026-04-26 04:59 38.29020 -77.46587 8933 ft 283 kts
2026-04-26 04:59 38.30956 -77.46307 8593 ft 277 kts
2026-04-26 04:59 38.32862 -77.45978 8390 ft 268 kts
2026-04-26 05:00 38.34679 -77.45686 8194 ft 255 kts
2026-04-26 05:00 38.36412 -77.45455 8024 ft 260 kts
2026-04-26 05:00 38.38240 -77.45247 7845 ft 264 kts
2026-04-26 05:00 38.40062 -77.45071 7653 ft 262 kts
2026-04-26 05:01 38.41871 -77.44922 7462 ft 259 kts
2026-04-26 05:01 38.43648 -77.44797 7274 ft 259 kts
2026-04-26 05:01 38.45456 -77.44690 7077 ft 258 kts
2026-04-26 05:01 38.47214 -77.44600 6879 ft 259 kts
2026-04-26 05:02 38.48980 -77.44523 6681 ft 255 kts 360°
2026-04-26 05:02 38.50748 -77.44453 6501 ft 254 kts 360°
2026-04-26 05:02 38.52525 -77.44395 6318 ft 252 kts 360°
2026-04-26 05:02 38.54282 -77.44344 6129 ft 252 kts 359°
2026-04-26 05:03 38.56030 -77.44298 5946 ft 250 kts 359°
2026-04-26 05:03 38.57763 -77.44257 5760 ft 248 kts 359°
2026-04-26 05:03 38.59504 -77.44218 5578 ft 248 kts 359°
2026-04-26 05:03 38.61229 -77.44183 5389 ft 248 kts 359°
2026-04-26 05:04 38.62967 -77.44149 5197 ft 248 kts 359°
2026-04-26 05:04 38.64690 -77.44117 5001 ft 246 kts 360°
2026-04-26 05:04 38.66405 -77.44087 4820 ft 240 kts 360°
2026-04-26 05:04 38.68059 -77.44057 4625 ft 230 kts 360°
2026-04-26 05:05 38.69644 -77.44030 4461 ft 235 kts
2026-04-26 05:05 38.71350 -77.43999 4292 ft 245 kts
2026-04-26 05:05 38.73061 -77.43972 4090 ft 243 kts
2026-04-26 05:05 38.74729 -77.43943 3789 ft 239 kts
2026-04-26 05:06 38.76383 -77.43916 3489 ft 236 kts
2026-04-26 05:06 38.77993 -77.43890 3188 ft 222 kts
2026-04-26 05:06 38.79473 -77.43866 2883 ft 200 kts
2026-04-26 05:06 38.80784 -77.43848 2603 ft 171 kts
2026-04-26 05:07 38.81887 -77.43832 2421 ft 145 kts
2026-04-26 05:07 38.82814 -77.43819 2226 ft 124 kts
2026-04-26 05:07 38.83617 -77.43808 2037 ft 108 kts
2026-04-26 05:07 38.84360 -77.43793 1899 ft 107 kts
2026-04-26 05:08 38.85114 -77.43774 1774 ft 109 kts
2026-04-26 05:08 38.85886 -77.43761 1617 ft 109 kts
2026-04-26 05:08 38.86646 -77.43747 1474 ft 110 kts
2026-04-26 05:08 38.87405 -77.43732 1339 ft 112 kts
2026-04-26 05:09 38.88181 -77.43720 1184 ft 111 kts
2026-04-26 05:09 38.88965 -77.43707 1034 ft 112 kts
2026-04-26 05:09 38.89744 -77.43694 881 ft 112 kts
2026-04-26 05:09 38.90531 -77.43680 730 ft 112 kts
2026-04-26 05:10 38.91312 -77.43667 575 ft 112 kts
2026-04-26 05:10 38.92083 -77.43649 425 ft 112 kts
2026-04-26 05:10 38.92862 -77.43642 327 ft 112 kts
2026-04-26 05:10 38.93486 -77.43629 324 ft 62 kts
2026-04-26 05:11 38.93733 -77.43627 324 ft 7 kts 358°
2026-04-26 05:11 38.93846 -77.43637 324 ft 19 kts 349°
2026-04-26 05:11 38.93977 -77.43691 324 ft 20 kts 333°
2026-04-26 05:11 38.94103 -77.43778 324 ft 21 kts 332°
2026-04-26 05:12 38.94245 -77.43851 324 ft 22 kts 347°
2026-04-26 05:12 38.94401 -77.43860 324 ft 23 kts 360°
2026-04-26 05:12 38.94567 -77.43856 324 ft 23 kts
2026-04-26 05:12 38.94731 -77.43857 324 ft 24 kts
2026-04-26 05:13 38.94904 -77.43853 324 ft 25 kts
2026-04-26 05:13 38.95011 -77.43922 324 ft 17 kts 275°
2026-04-26 05:13 38.95015 -77.44087 324 ft 19 kts 271°
2026-04-26 05:13 38.95015 -77.44263 324 ft 20 kts 270°
2026-04-26 05:14 38.95015 -77.44431 324 ft 9 kts 260°
2026-04-26 05:14 38.94965 -77.44463 324 ft 9 kts 195°
2026-04-26 05:14 38.94929 -77.44477 324 ft 0 kts 198°